| time (UTC) | temp F | wind direction | speed MPH | gust MPH | rain 1hr in | rain 24hr in | rain mn in | humidity % | barometer mb |
| 20260508125623 | 80 | 202 | 0.0 | 0.0 | 0.00 | 0.00 | 0.00 | 16 | 1017.7 |
| 20260508125123 | 80 | 157 | 0.0 | 0.0 | 0.00 | 0.00 | 0.00 | 16 | 1017.8 |
| 20260508124623 | 80 | 157 | 0.0 | 4.0 | 0.00 | 0.00 | 0.00 | 16 | 1017.6 |
| 20260508124123 | 79 | 157 | 4.0 | 4.0 | 0.00 | 0.00 | 0.00 | 17 | 1017.8 |
| 20260508123623 | 78 | 247 | 0.0 | 0.0 | 0.00 | 0.00 | 0.00 | 17 | 1017.7 |
| 20260508123123 | 79 | 135 | 0.0 | 3.0 | 0.00 | 0.00 | 0.00 | 17 | 1017.8 |
| 20260508122623 | 79 | 292 | 0.0 | 0.0 | 0.00 | 0.00 | 0.00 | 17 | 1017.8 |
| 20260508122123 | 78 | 157 | 0.0 | 3.0 | 0.00 | 0.00 | 0.00 | 17 | 1017.7 |
| 20260508121623 | 77 | 135 | 0.0 | 3.0 | 0.00 | 0.00 | 0.00 | 18 | 1017.7 |
| 20260508121123 | 77 | 315 | 0.0 | 4.0 | 0.00 | 0.00 | 0.00 | 17 | 1017.8 |
| 20260508120623 | 76 | 270 | 0.0 | 1.0 | 0.00 | 0.00 | 0.00 | 18 | 1017.8 |
| 20260508120123 | 75 | 292 | 0.0 | 3.0 | 0.00 | 0.00 | 0.00 | 18 | 1017.8 |
| 20260508115623 | 74 | 135 | 0.0 | 4.0 | 0.00 | 0.00 | 0.00 | 19 | 1017.9 |
| 20260508115123 | 71 | 292 | 0.0 | 2.0 | 0.00 | 0.00 | 0.00 | 21 | 1017.9 |
| 20260508114623 | 71 | 315 | 0.0 | 2.0 | 0.00 | 0.00 | 0.00 | 21 | 1018.0 |
| 20260508114123 | 72 | 112 | 0.0 | 0.0 | 0.00 | 0.00 | 0.00 | 19 | 1018.0 |
| 20260508113623 | 74 | 292 | 0.0 | 0.0 | 0.00 | 0.00 | 0.00 | 20 | 1017.9 |
| 20260508113123 | 75 | 270 | 0.0 | 2.0 | 0.00 | 0.00 | 0.00 | 20 | 1018.1 |
| 20260508112623 | 75 | 292 | 0.0 | 0.0 | 0.00 | 0.00 | 0.00 | 18 | 1018.1 |
| 20260508112123 | 75 | 292 | 0.0 | 5.0 | 0.00 | 0.00 | 0.00 | 18 | 1018.1 |
| 20260508111623 | 77 | 247 | 0.0 | 5.0 | 0.00 | 0.00 | 0.00 | 18 | 1017.9 |
| 20260508111123 | 76 | 292 | 0.0 | 0.0 | 0.00 | 0.00 | 0.00 | 20 | 1018.0 |
| 20260508110623 | 75 | 135 | 0.0 | 5.0 | 0.00 | 0.00 | 0.00 | 20 | 1018.1 |
| 20260508110123 | 74 | 157 | 0.0 | 0.0 | 0.00 | 0.00 | 0.00 | 21 | 1018.2 |
| 20260508105623 | 75 | 292 | 0.0 | 0.0 | 0.00 | 0.00 | 0.00 | 21 | 1018.2 |
| 20260508105123 | 73 | 292 | 0.0 | 0.0 | 0.00 | 0.00 | 0.00 | 21 | 1018.0 |
| 20260508104623 | 74 | 202 | 0.0 | 2.0 | 0.00 | 0.00 | 0.00 | 21 | 1018.1 |
| 20260508104123 | 73 | 247 | 0.0 | 3.0 | 0.00 | 0.00 | 0.00 | 21 | 1017.9 |
| 20260508103623 | 73 | 135 | 0.0 | 2.0 | 0.00 | 0.00 | 0.00 | 22 | 1018.1 |
| 20260508103123 | 72 | 337 | 0.0 | 0.0 | 0.00 | 0.00 | 0.00 | 23 | 1017.9 |
| 20260508102623 | 71 | 292 | 0.0 | 0.0 | 0.00 | 0.00 | 0.00 | 23 | 1017.9 |
| 20260508102123 | 70 | 202 | 0.0 | 0.0 | 0.00 | 0.00 | 0.00 | 24 | 1018.0 |
| 20260508101623 | 68 | 135 | 0.0 | 2.0 | 0.00 | 0.00 | 0.00 | 25 | 1018.1 |
| 20260508101124 | 67 | 225 | 0.0 | 0.0 | 0.00 | 0.00 | 0.00 | 25 | 1018.2 |
| 20260508100623 | 66 | 202 | 0.0 | 8.0 | 0.00 | 0.00 | 0.00 | 25 | 1017.9 |
| 20260508100124 | 66 | 270 | 0.0 | 0.0 | 0.00 | 0.00 | 0.00 | 26 | 1017.9 |
| 20260508095624 | 65 | 292 | 0.0 | 4.0 | 0.00 | 0.00 | 0.00 | 26 | 1018.1 |
| 20260508095124 | 64 | 135 | 0.0 | 2.0 | 0.00 | 0.00 | 0.00 | 27 | 1018.1 |
| 20260508094624 | 63 | 135 | 0.0 | 2.0 | 0.00 | 0.00 | 0.00 | 27 | 1018.0 |
| 20260508094124 | 63 | 135 | 2.0 | 4.0 | 0.00 | 0.00 | 0.00 | 27 | 1018.1 |
| 20260508093624 | 63 | 292 | 0.0 | 3.0 | 0.00 | 0.00 | 0.00 | 28 | 1018.0 |
| 20260508093124 | 62 | 180 | 0.0 | 0.0 | 0.00 | 0.00 | 0.00 | 28 | 1018.0 |
| 20260508092624 | 61 | 292 | 0.0 | 3.0 | 0.00 | 0.00 | 0.00 | 29 | 1017.8 |
| 20260508092124 | 60 | 247 | 0.0 | 4.0 | 0.00 | 0.00 | 0.00 | 29 | 1017.8 |
| 20260508091624 | 60 | 292 | 0.0 | 4.0 | 0.00 | 0.00 | 0.00 | 29 | 1017.8 |
| 20260508091124 | 61 | 225 | 7.0 | 7.0 | 0.00 | 0.00 | 0.00 | 29 | 1018.1 |
| 20260508090624 | 61 | 225 | 0.0 | 3.0 | 0.00 | 0.00 | 0.00 | 29 | 1017.9 |
| 20260508090124 | 61 | 270 | 0.0 | 6.0 | 0.00 | 0.00 | 0.00 | 29 | 1018.0 |
| 20260508085624 | 61 | 315 | 4.0 | 4.0 | 0.00 | 0.00 | 0.00 | 30 | 1017.9 |
| 20260508085124 | 61 | 292 | 0.0 | 0.0 | 0.00 | 0.00 | 0.00 | 30 | 1017.9 |
| 20260508084624 | 60 | 315 | 0.0 | 0.0 | 0.00 | 0.00 | 0.00 | 31 | 1018.0 |
| 20260508084124 | 60 | 202 | 0.0 | 0.0 | 0.00 | 0.00 | 0.00 | 30 | 1018.0 |
| 20260508083624 | 61 | 292 | 0.0 | 2.0 | 0.00 | 0.00 | 0.00 | 30 | 1018.1 |
| 20260508083124 | 61 | 315 | 0.0 | 4.0 | 0.00 | 0.00 | 0.00 | 30 | 1018.1 |
| 20260508082624 | 61 | 292 | 0.0 | 2.0 | 0.00 | 0.00 | 0.00 | 30 | 1018.0 |
| 20260508082124 | 61 | 315 | 0.0 | 4.0 | 0.00 | 0.00 | 0.00 | 30 | 1018.1 |
| 20260508081624 | 61 | 315 | 0.0 | 0.0 | 0.00 | 0.00 | 0.00 | 30 | 1018.1 |
| 20260508081124 | 61 | 315 | 0.0 | 0.0 | 0.00 | 0.00 | 0.00 | 30 | 1018.1 |
| 20260508080624 | 62 | 180 | 0.0 | 6.0 | 0.00 | 0.00 | 0.00 | 30 | 1018.1 |
| 20260508080124 | 62 | 180 | 0.0 | 3.0 | 0.00 | 0.00 | 0.00 | 30 | 1018.1 |
| 20260508075624 | 61 | 270 | 0.0 | 5.0 | 0.00 | 0.00 | 0.00 | 30 | 1018.0 |
| 20260508075124 | 62 | 270 | 0.0 | 4.0 | 0.00 | 0.00 | 0.00 | 29 | 1017.9 |
| 20260508074624 | 62 | 180 | 0.0 | 0.0 | 0.00 | 0.00 | 0.00 | 29 | 1017.9 |
| 20260508074124 | 63 | 157 | 0.0 | 4.0 | 0.00 | 0.00 | 0.00 | 29 | 1017.9 |
| 20260508073624 | 63 | 270 | 0.0 | 0.0 | 0.00 | 0.00 | 0.00 | 31 | 1017.7 |
| 20260508073124 | 63 | 157 | 0.0 | 0.0 | 0.00 | 0.00 | 0.00 | 32 | 1017.7 |
| 20260508072624 | 62 | 315 | 0.0 | 0.0 | 0.00 | 0.00 | 0.00 | 31 | 1017.7 |
| 20260508072124 | 62 | 270 | 0.0 | 0.0 | 0.00 | 0.00 | 0.00 | 32 | 1017.7 |
| 20260508071624 | 61 | 270 | 0.0 | 2.0 | 0.00 | 0.00 | 0.00 | 31 | 1017.7 |
| 20260508071124 | 61 | 292 | 0.0 | 3.0 | 0.00 | 0.00 | 0.00 | 31 | 1017.6 |
| 20260508070624 | 61 | 157 | 0.0 | 9.0 | 0.00 | 0.00 | 0.00 | 30 | 1017.5 |
| 20260508070124 | 61 | 315 | 0.0 | 6.0 | 0.00 | 0.00 | 0.00 | 32 | 1017.5 |
| 20260508065624 | 62 | 315 | 0.0 | 8.0 | 0.00 | 0.00 | 0.00 | 30 | 1017.7 |
| 20260508065124 | 62 | 292 | 0.0 | 8.0 | 0.00 | 0.00 | 0.00 | 30 | 1017.6 |
| 20260508064624 | 62 | 270 | 0.0 | 4.0 | 0.00 | 0.00 | 0.00 | 31 | 1017.5 |
| 20260508064124 | 63 | 315 | 0.0 | 2.0 | 0.00 | 0.00 | 0.00 | 32 | 1017.3 |
| 20260508063624 | 64 | 270 | 2.0 | 6.0 | 0.00 | 0.00 | 0.00 | 32 | 1017.4 |
| 20260508063124 | 63 | 315 | 0.0 | 0.0 | 0.00 | 0.00 | 0.00 | 34 | 1017.4 |
| 20260508062624 | 63 | 225 | 0.0 | 3.0 | 0.00 | 0.00 | 0.00 | 34 | 1017.4 |
| 20260508062124 | 64 | 270 | 0.0 | 0.0 | 0.00 | 0.00 | 0.00 | 34 | 1017.2 |
| 20260508061624 | 63 | 270 | 0.0 | 0.0 | 0.00 | 0.00 | 0.00 | 34 | 1017.2 |
| 20260508061124 | 64 | 247 | 0.0 | 4.0 | 0.00 | 0.00 | 0.00 | 36 | 1017.3 |
| 20260508060624 | 62 | 247 | 0.0 | 0.0 | 0.00 | 0.00 | 0.00 | 38 | 1017.2 |
| 20260508060124 | 62 | 135 | 0.0 | 3.0 | 0.00 | 0.00 | 0.00 | 37 | 1016.9 |
| 20260508055624 | 62 | 315 | 0.0 | 0.0 | 0.00 | 0.00 | 0.00 | 38 | 1016.8 |
| 20260508055124 | 61 | 292 | 0.0 | 0.0 | 0.00 | 0.00 | 0.00 | 40 | 1016.9 |
| 20260508054624 | 61 | 225 | 0.0 | 6.0 | 0.00 | 0.00 | 0.00 | 39 | 1016.9 |
| 20260508054124 | 61 | 292 | 0.0 | 3.0 | 0.00 | 0.00 | 0.00 | 43 | 1016.8 |
| 20260508053624 | 57 | 270 | 0.0 | 0.0 | 0.00 | 0.00 | 0.00 | 48 | 1016.7 |
| 20260508053124 | 54 | 247 | 0.0 | 0.0 | 0.00 | 0.00 | 0.00 | 53 | 1016.7 |
| 20260508052624 | 50 | 270 | 0.0 | 0.0 | 0.00 | 0.00 | 0.00 | 56 | 1016.6 |
| 20260508052124 | 47 | 247 | 0.0 | 0.0 | 0.00 | 0.00 | 0.00 | 56 | 1016.6 |
| 20260508051624 | 46 | 202 | 0.0 | 0.0 | 0.00 | 0.00 | 0.00 | 57 | 1016.6 |
| 20260508051124 | 44 | 292 | 0.0 | 6.0 | 0.00 | 0.00 | 0.00 | 57 | 1016.5 |
| 20260508050624 | 44 | 315 | 0.0 | 5.0 | 0.00 | 0.00 | 0.00 | 59 | 1016.4 |
| 20260508050124 | 43 | 315 | 4.0 | 4.0 | 0.00 | 0.00 | 0.00 | 59 | 1016.2 |
| 20260508045624 | 42 | 292 | 0.0 | 0.0 | 0.00 | 0.00 | 0.00 | 59 | 1016.5 |
| 20260508045124 | 42 | 315 | 0.0 | 5.0 | 0.00 | 0.00 | 0.00 | 60 | 1016.5 |
| 20260508044624 | 42 | 247 | 0.0 | 0.0 | 0.00 | 0.00 | 0.00 | 60 | 1016.5 |
| 20260508044124 | 41 | 315 | 0.0 | 0.0 | 0.00 | 0.00 | 0.00 | 61 | 1016.3 |
| 20260508043624 | 41 | 270 | 0.0 | 2.0 | 0.00 | 0.00 | 0.00 | 61 | 1016.2 |
| 20260508043124 | 41 | 315 | 0.0 | 0.0 | 0.00 | 0.00 | 0.00 | 61 | 1016.2 |
| 20260508042625 | 41 | 180 | 0.0 | 7.0 | 0.00 | 0.00 | 0.00 | 61 | 1016.2 |
| 20260508042124 | 40 | 292 | 0.0 | 5.0 | 0.00 | 0.00 | 0.00 | 62 | 1016.2 |
| 20260508041624 | 40 | 270 | 0.0 | 0.0 | 0.00 | 0.00 | 0.00 | 62 | 1016.1 |
| 20260508041124 | 39 | 225 | 0.0 | 0.0 | 0.00 | 0.00 | 0.00 | 63 | 1016.0 |
| 20260508040625 | 39 | 270 | 0.0 | 0.0 | 0.00 | 0.00 | 0.00 | 63 | 1015.8 |
| 20260508040124 | 39 | 270 | 0.0 | 0.0 | 0.00 | 0.00 | 0.00 | 63 | 1015.8 |
| 20260508035624 | 38 | 292 | 0.0 | 0.0 | 0.00 | 0.00 | 0.00 | 64 | 1015.6 |
| 20260508035125 | 38 | 292 | 0.0 | 0.0 | 0.00 | 0.00 | 0.00 | 64 | 1015.6 |
| 20260508034625 | 37 | 315 | 0.0 | 0.0 | 0.00 | 0.00 | 0.00 | 65 | 1015.5 |
| 20260508034125 | 36 | 270 | 0.0 | 0.0 | 0.00 | 0.00 | 0.00 | 65 | 1015.5 |
| 20260508033625 | 36 | 270 | 0.0 | 0.0 | 0.00 | 0.00 | 0.00 | 65 | 1015.5 |
| 20260508033125 | 36 | 270 | 0.0 | 0.0 | 0.00 | 0.00 | 0.00 | 65 | 1015.4 |
| 20260508032625 | 35 | 247 | 0.0 | 0.0 | 0.00 | 0.00 | 0.00 | 65 | 1015.4 |
| 20260508032125 | 35 | 270 | 0.0 | 0.0 | 0.00 | 0.00 | 0.00 | 65 | 1015.4 |
| 20260508031625 | 34 | 270 | 0.0 | 0.0 | 0.00 | 0.00 | 0.00 | 65 | 1015.3 |
| 20260508031125 | 34 | 292 | 0.0 | 0.0 | 0.00 | 0.00 | 0.00 | 65 | 1015.3 |
| 20260508030625 | 34 | 292 | 0.0 | 0.0 | 0.00 | 0.00 | 0.00 | 65 | 1015.3 |
| 20260508030125 | 34 | 292 | 0.0 | 0.0 | 0.00 | 0.00 | 0.00 | 65 | 1015.3 |
| 20260508025625 | 34 | 292 | 0.0 | 0.0 | 0.00 | 0.00 | 0.00 | 65 | 1015.1 |
| 20260508025125 | 33 | 292 | 0.0 | 0.0 | 0.00 | 0.00 | 0.00 | 65 | 1015.1 |
| 20260508024625 | 33 | 247 | 0.0 | 0.0 | 0.00 | 0.00 | 0.00 | 64 | 1015.0 |
| 20260508024125 | 33 | 247 | 0.0 | 0.0 | 0.00 | 0.00 | 0.00 | 64 | 1014.9 |
| 20260508023625 | 33 | 247 | 0.0 | 0.0 | 0.00 | 0.00 | 0.00 | 64 | 1014.7 |
| 20260508023125 | 33 | 247 | 0.0 | 0.0 | 0.00 | 0.00 | 0.00 | 63 | 1014.8 |
| 20260508022625 | 34 | 247 | 0.0 | 0.0 | 0.00 | 0.00 | 0.00 | 63 | 1014.7 |
| 20260508022125 | 34 | 247 | 0.0 | 0.0 | 0.00 | 0.00 | 0.00 | 63 | 1014.6 |
| 20260508021625 | 35 | 247 | 0.0 | 0.0 | 0.00 | 0.00 | 0.00 | 63 | 1014.6 |
| 20260508021125 | 35 | 247 | 0.0 | 0.0 | 0.00 | 0.00 | 0.00 | 62 | 1014.6 |
| 20260508020625 | 35 | 247 | 0.0 | 0.0 | 0.00 | 0.00 | 0.00 | 62 | 1014.5 |
| 20260508020125 | 35 | 270 | 0.0 | 0.0 | 0.00 | 0.00 | 0.00 | 62 | 1014.4 |
| 20260508015625 | 35 | 270 | 0.0 | 0.0 | 0.00 | 0.00 | 0.00 | 62 | 1014.3 |
| 20260508015125 | 35 | 270 | 0.0 | 0.0 | 0.00 | 0.00 | 0.00 | 61 | 1014.3 |
| 20260508014625 | 36 | 270 | 0.0 | 0.0 | 0.00 | 0.00 | 0.00 | 61 | 1014.2 |
| 20260508014125 | 36 | 270 | 0.0 | 0.0 | 0.00 | 0.00 | 0.00 | 61 | 1014.1 |
| 20260508013625 | 36 | 270 | 0.0 | 0.0 | 0.00 | 0.00 | 0.00 | 61 | 1014.1 |
| 20260508013125 | 36 | 315 | 0.0 | 0.0 | 0.00 | 0.00 | 0.00 | 61 | 1014.1 |
| 20260508012625 | 36 | 315 | 0.0 | 0.0 | 0.00 | 0.00 | 0.00 | 61 | 1013.9 |
| 20260508012125 | 36 | 337 | 0.0 | 2.0 | 0.00 | 0.00 | 0.00 | 60 | 1013.9 |
| 20260508011625 | 36 | 225 | 0.0 | 0.0 | 0.00 | 0.00 | 0.00 | 60 | 1013.9 |
| 20260508011125 | 37 | 225 | 0.0 | 0.0 | 0.00 | 0.00 | 0.00 | 60 | 1013.9 |
| 20260508010625 | 37 | 292 | 0.0 | 0.0 | 0.00 | 0.00 | 0.00 | 59 | 1013.6 |
| 20260508010125 | 37 | 202 | 0.0 | 0.0 | 0.00 | 0.00 | 0.00 | 59 | 1013.6 |
| 20260508005625 | 37 | 315 | 0.0 | 0.0 | 0.00 | 0.00 | 0.00 | 59 | 1013.6 |
| 20260508005125 | 37 | 315 | 0.0 | 0.0 | 0.00 | 0.00 | 0.00 | 59 | 1013.6 |
| 20260508004625 | 37 | 292 | 0.0 | 0.0 | 0.00 | 0.00 | 0.00 | 59 | 1013.6 |
| 20260508004125 | 37 | 315 | 0.0 | 0.0 | 0.00 | 0.00 | 0.00 | 59 | 1013.5 |
| 20260508003625 | 37 | 292 | 0.0 | 0.0 | 0.00 | 0.00 | 0.00 | 59 | 1013.4 |
| 20260508003125 | 37 | 292 | 0.0 | 0.0 | 0.00 | 0.00 | 0.00 | 59 | 1013.4 |
| 20260508002625 | 37 | 270 | 0.0 | 0.0 | 0.00 | 0.00 | 0.00 | 59 | 1013.3 |
| 20260508002125 | 37 | 225 | 0.0 | 0.0 | 0.00 | 0.00 | 0.00 | 59 | 1013.3 |
| 20260508001625 | 37 | 315 | 0.0 | 0.0 | 0.00 | 0.00 | 0.00 | 59 | 1013.2 |
| 20260508001125 | 37 | 315 | 0.0 | 0.0 | 0.00 | 0.00 | 0.00 | 58 | 1013.1 |
| 20260508000625 | 37 | 0 | 0.0 | 0.0 | 0.00 | 0.00 | 0.00 | 58 | 1013.0 |
| 20260508000125 | 37 | 247 | 0.0 | 0.0 | 0.00 | 0.00 | 0.00 | 58 | 1012.9 |
| 20260507235625 | 37 | 247 | 0.0 | 0.0 | 0.00 | 0.00 | 0.00 | 58 | 1013.0 |
| 20260507235125 | 37 | 247 | 0.0 | 0.0 | 0.00 | 0.00 | 0.00 | 58 | 1012.9 |
| 20260507234625 | 37 | 315 | 0.0 | 0.0 | 0.00 | 0.00 | 0.00 | 58 | 1012.8 |
| 20260507234125 | 37 | 270 | 0.0 | 0.0 | 0.00 | 0.00 | 0.00 | 58 | 1012.7 |
| 20260507233625 | 37 | 315 | 0.0 | 0.0 | 0.00 | 0.00 | 0.00 | 58 | 1012.7 |
| 20260507233125 | 37 | 337 | 0.0 | 0.0 | 0.00 | 0.00 | 0.00 | 58 | 1012.7 |
| 20260507232625 | 37 | 270 | 0.0 | 0.0 | 0.00 | 0.00 | 0.00 | 58 | 1012.6 |
| 20260507232125 | 37 | 270 | 0.0 | 0.0 | 0.00 | 0.00 | 0.00 | 58 | 1012.5 |
| 20260507231625 | 37 | 225 | 0.0 | 0.0 | 0.00 | 0.00 | 0.00 | 57 | 1012.4 |
| 20260507231125 | 37 | 225 | 0.0 | 0.0 | 0.00 | 0.00 | 0.00 | 57 | 1012.3 |
| 20260507230625 | 37 | 225 | 0.0 | 0.0 | 0.00 | 0.00 | 0.00 | 57 | 1012.2 |
| 20260507230125 | 37 | 225 | 0.0 | 0.0 | 0.00 | 0.00 | 0.00 | 56 | 1012.1 |
| 20260507225625 | 37 | 225 | 0.0 | 0.0 | 0.00 | 0.00 | 0.00 | 56 | 1012.1 |
| 20260507225125 | 37 | 225 | 0.0 | 0.0 | 0.00 | 0.00 | 0.00 | 56 | 1012.0 |
| 20260507224625 | 37 | 225 | 0.0 | 0.0 | 0.00 | 0.00 | 0.00 | 55 | 1011.9 |
| 20260507224125 | 37 | 225 | 0.0 | 0.0 | 0.00 | 0.00 | 0.00 | 55 | 1011.9 |
| 20260507223625 | 37 | 225 | 0.0 | 0.0 | 0.00 | 0.00 | 0.00 | 55 | 1011.8 |
| 20260507223125 | 37 | 225 | 0.0 | 0.0 | 0.00 | 0.00 | 0.00 | 54 | 1011.8 |
| 20260507222625 | 37 | 225 | 0.0 | 0.0 | 0.00 | 0.00 | 0.00 | 54 | 1011.7 |
| 20260507222125 | 37 | 225 | 0.0 | 0.0 | 0.00 | 0.00 | 0.00 | 54 | 1011.7 |
| 20260507221625 | 37 | 225 | 0.0 | 0.0 | 0.00 | 0.00 | 0.00 | 53 | 1011.7 |
| 20260507221125 | 38 | 225 | 0.0 | 0.0 | 0.00 | 0.00 | 0.00 | 53 | 1011.6 |
| 20260507220626 | 38 | 225 | 0.0 | 0.0 | 0.00 | 0.00 | 0.00 | 53 | 1011.7 |
| 20260507220125 | 38 | 225 | 0.0 | 0.0 | 0.00 | 0.00 | 0.00 | 53 | 1011.6 |
| 20260507215626 | 38 | 225 | 0.0 | 0.0 | 0.00 | 0.00 | 0.00 | 53 | 1011.6 |
| 20260507215126 | 38 | 225 | 0.0 | 0.0 | 0.00 | 0.00 | 0.00 | 53 | 1011.5 |
| 20260507214626 | 38 | 225 | 0.0 | 0.0 | 0.00 | 0.00 | 0.00 | 52 | 1011.6 |
| 20260507214126 | 38 | 225 | 0.0 | 0.0 | 0.00 | 0.00 | 0.00 | 52 | 1011.4 |
| 20260507213626 | 38 | 225 | 0.0 | 0.0 | 0.00 | 0.00 | 0.00 | 52 | 1011.3 |
| 20260507213126 | 38 | 225 | 0.0 | 0.0 | 0.00 | 0.00 | 0.00 | 52 | 1011.2 |
| 20260507212626 | 38 | 225 | 0.0 | 0.0 | 0.00 | 0.00 | 0.00 | 52 | 1011.2 |
| 20260507212126 | 38 | 225 | 0.0 | 0.0 | 0.00 | 0.00 | 0.00 | 52 | 1011.2 |
| 20260507211626 | 38 | 225 | 0.0 | 0.0 | 0.00 | 0.00 | 0.00 | 52 | 1011.1 |
| 20260507211126 | 38 | 225 | 0.0 | 0.0 | 0.00 | 0.00 | 0.00 | 51 | 1011.0 |
| 20260507210626 | 39 | 225 | 0.0 | 0.0 | 0.00 | 0.00 | 0.00 | 51 | 1010.9 |
| 20260507210126 | 39 | 225 | 0.0 | 0.0 | 0.00 | 0.00 | 0.00 | 51 | 1010.9 |
| 20260507205626 | 39 | 225 | 0.0 | 0.0 | 0.00 | 0.00 | 0.00 | 51 | 1010.8 |
| 20260507205126 | 39 | 225 | 0.0 | 0.0 | 0.00 | 0.00 | 0.00 | 51 | 1010.7 |
| 20260507204626 | 39 | 225 | 0.0 | 0.0 | 0.00 | 0.00 | 0.00 | 51 | 1010.7 |
| 20260507204126 | 39 | 270 | 0.0 | 0.0 | 0.00 | 0.00 | 0.00 | 51 | 1010.4 |
| 20260507203626 | 38 | 270 | 0.0 | 0.0 | 0.00 | 0.00 | 0.00 | 52 | 1010.4 |
| 20260507203126 | 38 | 292 | 0.0 | 0.0 | 0.00 | 0.00 | 0.00 | 52 | 1010.3 |
| 20260507202626 | 38 | 337 | 0.0 | 0.0 | 0.00 | 0.00 | 0.00 | 52 | 1010.3 |
| 20260507202126 | 37 | 337 | 0.0 | 0.0 | 0.00 | 0.00 | 0.00 | 51 | 1010.3 |
| 20260507201626 | 37 | 337 | 0.0 | 0.0 | 0.00 | 0.00 | 0.00 | 50 | 1010.3 |
| 20260507201126 | 37 | 337 | 0.0 | 0.0 | 0.00 | 0.00 | 0.00 | 49 | 1010.1 |
| 20260507200626 | 37 | 337 | 0.0 | 0.0 | 0.00 | 0.00 | 0.00 | 49 | 1010.0 |
| 20260507200126 | 37 | 337 | 0.0 | 0.0 | 0.00 | 0.00 | 0.00 | 48 | 1010.1 |
| 20260507195626 | 37 | 337 | 0.0 | 0.0 | 0.00 | 0.00 | 0.00 | 48 | 1009.8 |
| 20260507195126 | 37 | 337 | 0.0 | 0.0 | 0.00 | 0.00 | 0.00 | 47 | 1009.9 |
| 20260507194626 | 38 | 337 | 0.0 | 0.0 | 0.00 | 0.00 | 0.00 | 47 | 1009.8 |
| 20260507194126 | 38 | 337 | 0.0 | 0.0 | 0.00 | 0.00 | 0.00 | 46 | 1009.8 |
| 20260507193626 | 38 | 337 | 0.0 | 0.0 | 0.00 | 0.00 | 0.00 | 45 | 1009.6 |
| 20260507193126 | 38 | 337 | 0.0 | 0.0 | 0.00 | 0.00 | 0.00 | 44 | 1009.6 |
| 20260507192626 | 39 | 337 | 0.0 | 0.0 | 0.00 | 0.00 | 0.00 | 44 | 1009.6 |
| 20260507192126 | 39 | 337 | 0.0 | 0.0 | 0.00 | 0.00 | 0.00 | 42 | 1009.5 |
| 20260507191626 | 39 | 337 | 0.0 | 0.0 | 0.00 | 0.00 | 0.00 | 42 | 1009.4 |
| 20260507191126 | 39 | 337 | 0.0 | 0.0 | 0.00 | 0.00 | 0.00 | 41 | 1009.3 |
| 20260507190626 | 40 | 337 | 0.0 | 0.0 | 0.00 | 0.00 | 0.00 | 40 | 1009.4 |
| 20260507190126 | 40 | 337 | 0.0 | 0.0 | 0.00 | 0.00 | 0.00 | 40 | 1009.3 |
| 20260507185626 | 41 | 337 | 0.0 | 0.0 | 0.00 | 0.00 | 0.00 | 40 | 1009.3 |
| 20260507185126 | 42 | 337 | 0.0 | 0.0 | 0.00 | 0.00 | 0.00 | 39 | 1009.2 |
| 20260507184626 | 42 | 337 | 0.0 | 0.0 | 0.00 | 0.00 | 0.00 | 39 | 1009.2 |
| 20260507184126 | 42 | 337 | 0.0 | 0.0 | 0.00 | 0.00 | 0.00 | 38 | 1009.2 |
| 20260507183626 | 43 | 337 | 0.0 | 0.0 | 0.00 | 0.00 | 0.00 | 38 | 1009.1 |
| 20260507183126 | 44 | 337 | 0.0 | 0.0 | 0.00 | 0.00 | 0.00 | 38 | 1009.1 |
| 20260507182626 | 44 | 337 | 0.0 | 0.0 | 0.00 | 0.00 | 0.00 | 37 | 1009.1 |
| 20260507182126 | 45 | 337 | 0.0 | 0.0 | 0.00 | 0.00 | 0.00 | 36 | 1009.0 |
| 20260507181626 | 46 | 337 | 0.0 | 0.0 | 0.00 | 0.00 | 0.00 | 36 | 1008.9 |
| 20260507181126 | 46 | 337 | 0.0 | 0.0 | 0.00 | 0.00 | 0.00 | 36 | 1009.0 |
| 20260507180626 | 46 | 337 | 0.0 | 0.0 | 0.00 | 0.00 | 0.00 | 35 | 1009.0 |
| 20260507180126 | 47 | 337 | 0.0 | 0.0 | 0.00 | 0.00 | 0.00 | 35 | 1008.9 |
| 20260507175626 | 48 | 337 | 0.0 | 0.0 | 0.00 | 0.00 | 0.00 | 34 | 1008.8 |
| 20260507175126 | 48 | 337 | 0.0 | 0.0 | 0.00 | 0.00 | 0.00 | 34 | 1008.8 |
| 20260507174626 | 49 | 315 | 0.0 | 0.0 | 0.00 | 0.00 | 0.00 | 33 | 1008.8 |
| 20260507174126 | 49 | 315 | 0.0 | 0.0 | 0.00 | 0.00 | 0.00 | 32 | 1008.8 |
| 20260507173626 | 50 | 292 | 0.0 | 0.0 | 0.00 | 0.00 | 0.00 | 32 | 1008.8 |
| 20260507173126 | 51 | 270 | 0.0 | 0.0 | 0.00 | 0.00 | 0.00 | 32 | 1008.8 |
| 20260507172626 | 51 | 315 | 0.0 | 0.0 | 0.00 | 0.00 | 0.00 | 32 | 1008.7 |
| 20260507172126 | 51 | 337 | 0.0 | 0.0 | 0.00 | 0.00 | 0.00 | 31 | 1008.7 |
| 20260507171626 | 52 | 315 | 0.0 | 0.0 | 0.00 | 0.00 | 0.00 | 29 | 1008.6 |
| 20260507171126 | 53 | 270 | 0.0 | 0.0 | 0.00 | 0.00 | 0.00 | 28 | 1008.5 |
| 20260507170626 | 54 | 225 | 0.0 | 0.0 | 0.00 | 0.00 | 0.00 | 27 | 1008.5 |
| 20260507170126 | 55 | 292 | 0.0 | 0.0 | 0.00 | 0.00 | 0.00 | 26 | 1008.5 |
| 20260507165626 | 57 | 315 | 0.0 | 0.0 | 0.00 | 0.00 | 0.00 | 26 | 1008.6 |
| 20260507165126 | 58 | 22 | 0.0 | 0.0 | 0.00 | 0.00 | 0.00 | 26 | 1008.5 |
| 20260507164626 | 58 | 45 | 0.0 | 0.0 | 0.00 | 0.00 | 0.00 | 27 | 1008.4 |
| 20260507164126 | 56 | 315 | 0.0 | 0.0 | 0.00 | 0.00 | 0.00 | 27 | 1008.4 |
| 20260507163626 | 56 | 315 | 0.0 | 0.0 | 0.00 | 0.00 | 0.00 | 27 | 1008.3 |
| 20260507163126 | 56 | 292 | 0.0 | 0.0 | 0.00 | 0.00 | 0.00 | 26 | 1008.3 |
| 20260507162626 | 57 | 45 | 0.0 | 0.0 | 0.00 | 0.00 | 0.00 | 25 | 1008.2 |
| 20260507162127 | 59 | 202 | 0.0 | 0.0 | 0.00 | 0.00 | 0.00 | 24 | 1008.2 |
| 20260507161627 | 63 | 315 | 0.0 | 0.0 | 0.00 | 0.00 | 0.00 | 21 | 1008.2 |
| 20260507161127 | 66 | 22 | 0.0 | 0.0 | 0.00 | 0.00 | 0.00 | 19 | 1008.2 |
| 20260507160627 | 73 | 315 | 0.0 | 0.0 | 0.00 | 0.00 | 0.00 | 18 | 1008.3 |
| 20260507160127 | 78 | 112 | 0.0 | 0.0 | 0.00 | 0.00 | 0.00 | 17 | 1008.2 |
| 20260507155627 | 77 | 135 | 0.0 | 0.0 | 0.00 | 0.00 | 0.00 | 18 | 1008.1 |
| 20260507155127 | 77 | 315 | 0.0 | 0.0 | 0.00 | 0.00 | 0.00 | 17 | 1008.0 |
| 20260507154627 | 77 | 180 | 0.0 | 0.0 | 0.00 | 0.00 | 0.00 | 17 | 1008.0 |
| 20260507154127 | 77 | 157 | 0.0 | 0.0 | 0.00 | 0.00 | 0.00 | 17 | 1008.0 |
| 20260507153627 | 78 | 180 | 0.0 | 0.0 | 0.00 | 0.00 | 0.00 | 17 | 1008.0 |
| 20260507153127 | 77 | 135 | 0.0 | 0.0 | 0.00 | 0.00 | 0.00 | 17 | 1007.9 |
| 20260507152627 | 77 | 112 | 0.0 | 0.0 | 0.00 | 0.00 | 0.00 | 17 | 1008.0 |
| 20260507152127 | 76 | 112 | 0.0 | 0.0 | 0.00 | 0.00 | 0.00 | 17 | 1007.9 |
| 20260507151627 | 77 | 135 | 0.0 | 0.0 | 0.00 | 0.00 | 0.00 | 16 | 1007.9 |
| 20260507151127 | 78 | 22 | 0.0 | 0.0 | 0.00 | 0.00 | 0.00 | 17 | 1007.9 |
| 20260507150627 | 77 | 135 | 0.0 | 0.0 | 0.00 | 0.00 | 0.00 | 17 | 1007.9 |
| 20260507150127 | 76 | 135 | 0.0 | 0.0 | 0.00 | 0.00 | 0.00 | 17 | 1007.9 |
| 20260507145627 | 75 | 157 | 0.0 | 3.0 | 0.00 | 0.00 | 0.00 | 17 | 1008.0 |
| 20260507145127 | 76 | 157 | 0.0 | 0.0 | 0.00 | 0.00 | 0.00 | 17 | 1008.1 |
| 20260507144627 | 75 | 112 | 0.0 | 0.0 | 0.00 | 0.00 | 0.00 | 18 | 1007.9 |
| 20260507144127 | 73 | 22 | 0.0 | 0.0 | 0.00 | 0.00 | 0.00 | 19 | 1008.1 |
| 20260507143627 | 71 | 337 | 0.0 | 0.0 | 0.00 | 0.00 | 0.00 | 19 | 1008.1 |
| 20260507143127 | 67 | 45 | 0.0 | 0.0 | 0.00 | 0.00 | 0.00 | 22 | 1008.0 |
| 20260507142627 | 64 | 315 | 0.0 | 0.0 | 0.00 | 0.00 | 0.00 | 23 | 1008.0 |
| 20260507142127 | 63 | 135 | 0.0 | 1.0 | 0.00 | 0.00 | 0.00 | 23 | 1007.9 |
| 20260507141627 | 62 | 112 | 0.0 | 0.0 | 0.00 | 0.00 | 0.00 | 23 | 1007.7 |
| 20260507141127 | 62 | 90 | 0.0 | 1.0 | 0.00 | 0.00 | 0.00 | 21 | 1007.8 |
| 20260507140627 | 62 | 0 | 0.0 | 0.0 | 0.00 | 0.00 | 0.00 | 21 | 1007.7 |
| 20260507140127 | 60 | 135 | 0.0 | 0.0 | 0.00 | 0.00 | 0.00 | 22 | 1007.7 |
| 20260507135627 | 60 | 90 | 0.0 | 0.0 | 0.00 | 0.00 | 0.00 | 21 | 1007.6 |
| 20260507135127 | 61 | 157 | 0.0 | 0.0 | 0.00 | 0.00 | 0.00 | 21 | 1007.6 |
| 20260507134627 | 61 | 112 | 0.0 | 4.0 | 0.00 | 0.00 | 0.00 | 21 | 1007.6 |
| 20260507134127 | 61 | 90 | 0.0 | 0.0 | 0.00 | 0.00 | 0.00 | 20 | 1007.6 |
| 20260507133627 | 64 | 135 | 0.0 | 0.0 | 0.00 | 0.00 | 0.00 | 18 | 1007.6 |
| 20260507133127 | 68 | 180 | 0.0 | 0.0 | 0.00 | 0.00 | 0.00 | 17 | 1007.6 |
| 20260507132627 | 74 | 157 | 0.0 | 0.0 | 0.00 | 0.00 | 0.00 | 16 | 1007.6 |
| 20260507132127 | 77 | 225 | 0.0 | 0.0 | 0.00 | 0.00 | 0.00 | 15 | 1007.7 |
| 20260507131628 | 77 | 135 | 0.0 | 0.0 | 0.00 | 0.00 | 0.00 | 16 | 1007.7 |
| 20260507131127 | 78 | 67 | 0.0 | 1.0 | 0.00 | 0.00 | 0.00 | 15 | 1007.6 |
| 20260507130627 | 78 | 112 | 0.0 | 0.0 | 0.00 | 0.00 | 0.00 | 16 | 1007.6 |
| 20260507130127 | 78 | 45 | 0.0 | 0.0 | 0.00 | 0.00 | 0.00 | 16 | 1007.6 |